Weather History for KEPH - November, 2012

Change the Weather History Date:

Friday, November 2, 2012

  Actual Average Record
Temperature  
Mean Temperature 46 °F 43 °F  
Max Temperature 52 °F 52 °F 65 °F (1970)
Min Temperature 40 °F 33 °F 13 °F (2002)
Degree Days  
Heating Degree Days 19 22  
Month to date heating degree days 33 44  
Since 1 July heating degree days 528 625  
Cooling Degree Days 0 0  
Month to date cooling degree days 0 0  
Year to date cooling degree days 837 772  
Moisture  
Dew Point 42 °F    
Average Humidity 89    
Maximum Humidity 100    
Minimum Humidity 77    
Precipitation  
Precipitation 0.00 in 0.03 in 0.33 in (2013)
Month to date precipitation 0.01 0.06  
Year to date precipitation 5.87 5.61  
Sea Level Pressure  
Sea Level Pressure 30.07 in    
Wind  
Wind Speed 7 mph (North)    
Max Wind Speed 12 mph    
Max Gust Speed 14 mph    
Visibility 7 miles    
Events      
T = Trace of Precipitation, MM = Missing Value Source: NWS Daily Summary

Daily Weather History Graph

Daily Weather History Graph

Search for Another Location

Airport or City:

Trip Planner

Search our weather history database for the weather conditions in past years. The results will help you decide how hot, cold, wet, or windy it might be!

Date:

Astronomy

Nov. 02, 2012 Rise Set
Actual Time 7:43 AM PDT 5:38 PM PDT
Civil Twilight 7:11 AM PDT 6:10 PM PDT
Nautical Twilight 6:35 AM PDT 6:47 PM PDT
Astronomical Twilight 5:59 AM PDT 7:22 PM PDT
Moon 8:22 PM PDT (11/2) 11:16 AM PDT (11/2)
Length of Visible Light 10h 59m
Length of Day
9h 54m
Waning Gibbous, 86% of the Moon is Illuminated
Nov 2
Waning Gibbous
Nov 6
Last Quarter
Nov 13
New
Nov 20
First Quarter
Nov 28
Full

Hourly Weather History & Observations

Time (PDT) Temp. Windchill Dew Point Humidity Pressure Visibility Wind Dir Wind Speed Gust Speed Precip Events Conditions
12:53 AM 42.1 °F 38.4 °F 41.0 °F 96% 30.03 in 5.0 mi NNE 5.8 mph - N/A   Scattered Clouds
1:11 AM 42.8 °F 38.6 °F 41.0 °F 93% 30.02 in 1.5 mi North 6.9 mph - N/A   Clear
1:22 AM 41.0 °F 38.0 °F 39.2 °F 93% 30.02 in 0.8 mi North 4.6 mph - N/A   Mist
1:27 AM 39.2 °F 35.9 °F 39.2 °F 100% 30.02 in 1.0 mi North 4.6 mph - N/A   Clear
1:40 AM 41.0 °F 37.1 °F 39.2 °F 93% 30.02 in 4.0 mi North 5.8 mph - N/A   Clear
1:53 AM 41.0 °F 38.0 °F 39.9 °F 96% 30.03 in 8.0 mi North 4.6 mph - N/A   Clear
2:53 AM 42.1 °F 37.7 °F 39.9 °F 92% 30.04 in 7.0 mi North 6.9 mph - N/A   Partly Cloudy
3:53 AM 41.0 °F 36.4 °F 39.9 °F 96% 30.05 in 2.0 mi North 6.9 mph - N/A   Clear
4:05 AM 42.8 °F 39.3 °F 41.0 °F 93% 30.04 in 5.0 mi North 5.8 mph - N/A   Clear
4:53 AM 39.9 °F 35.8 °F 39.0 °F 97% 30.06 in 1.8 mi NNE 5.8 mph - N/A   Partly Cloudy
5:02 AM 39.2 °F 33.6 °F 39.2 °F 100% 30.05 in 1.0 mi North 8.1 mph - N/A   Mist
5:06 AM 39.2 °F 33.6 °F 39.2 °F 100% 30.05 in 2.5 mi North 8.1 mph - N/A   Partly Cloudy
5:13 AM 39.2 °F 33.6 °F 39.2 °F 100% 30.05 in 5.0 mi North 8.1 mph - N/A   Partly Cloudy
5:37 AM 39.2 °F 35.9 °F 39.2 °F 100% 30.06 in 6.0 mi NNE 4.6 mph - N/A   Mostly Cloudy
5:53 AM 41.0 °F 37.1 °F 39.9 °F 96% 30.08 in 8.0 mi NNE 5.8 mph - N/A   Overcast
6:53 AM 43.0 °F 38.2 °F 41.0 °F 93% 30.09 in 8.0 mi North 8.1 mph - N/A   Overcast
7:53 AM 43.0 °F 39.5 °F 42.1 °F 97% 30.10 in 5.0 mi NNE 5.8 mph - N/A   Overcast
8:00 AM 42.8 °F 39.3 °F 42.8 °F 100% 30.08 in 4.0 mi NNE 5.8 mph - N/A   Overcast
8:53 AM 44.1 °F 40.1 °F 42.1 °F 93% 30.12 in 7.0 mi North 6.9 mph - N/A   Overcast
9:53 AM 45.0 °F 40.6 °F 43.0 °F 93% 30.12 in 9.0 mi North 8.1 mph - N/A   Overcast
10:53 AM 46.0 °F 42.5 °F 43.0 °F 89% 30.12 in 8.0 mi NNE 6.9 mph - N/A   Overcast
11:44 AM 46.4 °F 42.4 °F 44.6 °F 93% 30.11 in 10.0 mi NNE 8.1 mph - N/A   Overcast
11:53 AM 46.9 °F - 44.1 °F 90% 30.12 in 10.0 mi NNE 8.1 mph - N/A   Overcast
12:53 PM 48.0 °F - 44.1 °F 86% 30.12 in 10.0 mi NNE 6.9 mph - N/A   Overcast
1:53 PM 48.9 °F - 44.1 °F 83% 30.10 in 10.0 mi North 6.9 mph - N/A   Overcast
2:31 PM 50.0 °F - 44.6 °F 82% 30.07 in 10.0 mi North 8.1 mph - N/A   Overcast
2:53 PM 51.1 °F - 45.0 °F 80% 30.08 in 10.0 mi North 9.2 mph - N/A   Overcast
3:29 PM 51.8 °F - 44.6 °F 76% 30.06 in 10.0 mi NNW 8.1 mph - N/A   Scattered Clouds
3:53 PM 52.0 °F - 45.0 °F 77% 30.08 in 10.0 mi NNW 8.1 mph - N/A   Clear
4:53 PM 51.1 °F - 45.0 °F 80% 30.07 in 9.0 mi NNW 8.1 mph - N/A   Clear
5:53 PM 48.9 °F - 44.1 °F 83% 30.06 in 9.0 mi NNW 5.8 mph - N/A   Clear
6:53 PM 50.0 °F - 44.1 °F 80% 30.07 in 8.0 mi WNW 6.9 mph - N/A   Overcast
7:53 PM 50.0 °F - 44.1 °F 80% 30.05 in 7.0 mi NW 6.9 mph - N/A   Scattered Clouds
8:53 PM 50.0 °F - 44.1 °F 80% 30.05 in 7.0 mi NW 8.1 mph - N/A   Overcast
9:53 PM 50.0 °F - 44.1 °F 80% 30.05 in 6.0 mi NW 8.1 mph - N/A   Haze
10:53 PM 50.0 °F - 44.1 °F 80% 30.04 in 10.0 mi NNW 8.1 mph - N/A   Overcast
11:53 PM 48.9 °F - 44.1 °F 83% 30.03 in 10.0 mi NNW 5.8 mph - N/A   Mostly Cloudy